WETTERDATEN

HEUTE
Time Temp. Taup. r.Fe. Druck
00:08 13.6 9.8 78 1016.7
00:18 13.6 9.8 78 1016.8
00:28 13.5 9.7 78 1016.6
00:38 13.5 9.7 78 1016.8
00:48 13.4 9.6 78 1016.8
00:58 13.4 9.8 79 1016.9
01:08 13.3 9.5 78 1017
01:19 13.3 9.5 78 1017.1
01:28 13.3 9.5 78 1017.1
01:38 13.3 9.5 78 1017.1
01:48 13.2 9.5 78 1017.1
01:59 13.2 9.5 78 1017.1
02:09 13.2 9.5 78 1017.1
02:18 13.2 9.5 78 1017.1
02:29 13.2 9.5 78 1017.2
02:39 13.2 9.5 78 1017.4
02:49 13.1 9.4 78 1017.3
02:59 13.1 9.4 78 1017.4
03:09 13.1 9.4 78 1017.3
03:19 13.1 9.4 78 1017.3
03:29 13.1 9.4 78 1017.3
03:40 13 9.1 77 1017.6
03:49 13 9.1 77 1017.4
03:59 13 9.1 77 1017.3
04:09 12.9 9 77 1017.3
04:20 12.9 9 77 1017.3
04:30 12.8 8.9 77 1017.3
04:39 12.8 8.9 77 1017.4
04:50 12.8 8.9 77 1017.6
05:00 12.9 9 77 1017.4
05:10 12.9 9 77 1017.6
05:20 12.9 9 77 1017.6
05:30 12.8 8.9 77 1017.7
05:40 12.8 8.9 77 1017.7
05:50 12.9 9 77 1017.6
06:01 12.9 9 77 1017.7
06:11 12.9 9 77 1017.8
06:20 12.9 9 77 1017.9
06:30 12.8 8.9 77 1018.1
06:41 12.7 9 78 1018
06:51 12.7 9 78 1018.1
07:01 12.7 9 78 1018.3
07:11 12.7 9 78 1018.3
07:21 12.7 9 78 1018.3
07:31 12.7 8.8 77 1018.4
07:41 12.7 8.8 77 1018.4
07:52 12.8 8.7 76 1018.5
08:01 12.8 8.5 75 1018.5
08:11 12.9 8.4 74 1018.6
08:21 13 8.5 74 1018.6
08:32 13.1 8.6 74 1018.7
08:42 13.2 8.5 73 1018.7
08:51 13.3 8.4 72 1018.7
09:02 13.4 8.5 72 1018.7
09:12 13.5 8.4 71 1018.7
09:22 13.6 8.4 71 1018.8
09:32 13.7 8.3 70 1018.7

TAGESSTATISTIK

2021-09-20
TEMPERATUR
MITTEL
13.1
MAXIMUM
13.7
09:32
MINIMUM
12.7
06:41
LUFTDRUCK
MITTEL
1017.7
MAXIMUM
1018.8
09:22
MINIMUM
1016.6
00:28
TAUPUNKT
MITTEL
9.1
MAXIMUM
9.8
00:08
MINIMUM
8.3
09:32
FEUCHTIGKEIT
MITTEL
77
MAXIMUM
79
00:58
MINIMUM
70
09:32
TEMPERATUR (°C)
MINIMUM
12.7
MAXIMUM
13.7
MITTEL
13.1
LUFTDRUCK (hpa)
MINIMUM
1016.6
MAXIMUM
1018.8
MITTEL
1017.7
MESSGERÄT